ADC007 SKBO-SKCC

Flight info

Callsign ADC007
Flight time 0h 52m
Altitude 27000
Route OSUSU4R OSUSU DCT BUV DCT ESNUT ESNUT2A
Aircraft B722/M-SDFGHRWY/C

Departure

Time 2026-04-25 23:20
Airport El Dorado International Airport (SKBO)

Arrival

Time 2026-04-26 00:12
Airport Camilo Daza International Airport (SKCC)
Time Latitude Longitude Altitude Speed Heading
2026-04-25 23:04 4.69112 -74.13750 8371 ft 0 kts 37°
2026-04-25 23:05 4.69110 -74.13752 8371 ft 1 kts 37°
2026-04-25 23:05 4.69098 -74.13761 8371 ft 3 kts 37°
2026-04-25 23:06 4.69082 -74.13773 8371 ft 3 kts 37°
2026-04-25 23:06 4.69066 -74.13785 8371 ft 3 kts 37°
2026-04-25 23:06 4.69059 -74.13790 8371 ft 0 kts 37°
2026-04-25 23:07 4.69062 -74.13788 8371 ft 1 kts 31°
2026-04-25 23:07 4.69074 -74.13784 8371 ft 3 kts
2026-04-25 23:08 4.69092 -74.13796 8371 ft 4 kts 295°
2026-04-25 23:08 4.69095 -74.13834 8371 ft 7 kts 274°
2026-04-25 23:08 4.69101 -74.13891 8371 ft 10 kts 278°
2026-04-25 23:08 4.69113 -74.13966 8371 ft 12 kts 278°
2026-04-25 23:09 4.69145 -74.14043 8371 ft 13 kts 333°
2026-04-25 23:09 4.69219 -74.14088 8371 ft 13 kts 320°
2026-04-25 23:09 4.69284 -74.14159 8371 ft 13 kts 296°
2026-04-25 23:09 4.69303 -74.14238 8371 ft 13 kts 285°
2026-04-25 23:10 4.69351 -74.14320 8371 ft 15 kts 304°
2026-04-25 23:10 4.69414 -74.14407 8371 ft 16 kts 308°
2026-04-25 23:10 4.69489 -74.14502 8371 ft 18 kts 306°
2026-04-25 23:10 4.69568 -74.14608 8371 ft 20 kts 307°
2026-04-25 23:11 4.69657 -74.14726 8371 ft 22 kts 307°
2026-04-25 23:11 4.69731 -74.14809 8371 ft 13 kts 338°
2026-04-25 23:11 4.69816 -74.14785 8371 ft 14 kts 33°
2026-04-25 23:11 4.69900 -74.14725 8371 ft 16 kts 36°
2026-04-25 23:12 4.69992 -74.14655 8371 ft 18 kts 37°
2026-04-25 23:12 4.70098 -74.14575 8371 ft 20 kts 37°
2026-04-25 23:12 4.70213 -74.14490 8371 ft 21 kts 36°
2026-04-25 23:12 4.70321 -74.14410 8371 ft 10 kts 37°
2026-04-25 23:13 4.70348 -74.14381 8371 ft 7 kts 69°
2026-04-25 23:13 4.70335 -74.14330 8371 ft 9 kts 121°
2026-04-25 23:13 4.70297 -74.14270 8371 ft 11 kts 124°
2026-04-25 23:13 4.70243 -74.14200 8371 ft 14 kts 128°
2026-04-25 23:14 4.70178 -74.14116 8371 ft 17 kts 128°
2026-04-25 23:14 4.70126 -74.14033 8371 ft 12 kts 86°
2026-04-25 23:14 4.70140 -74.13966 8371 ft 11 kts 99°
2026-04-25 23:14 4.70097 -74.13898 8371 ft 13 kts 128°
2026-04-25 23:15 4.70037 -74.13819 8371 ft 16 kts 127°
2026-04-25 23:15 4.69965 -74.13725 8371 ft 18 kts 127°
2026-04-25 23:15 4.69882 -74.13617 8371 ft 21 kts 127°
2026-04-25 23:15 4.69793 -74.13494 8371 ft 23 kts 126°
2026-04-25 23:16 4.69692 -74.13361 8371 ft 25 kts 127°
2026-04-25 23:16 4.69586 -74.13219 8371 ft 26 kts 127°
2026-04-25 23:16 4.69473 -74.13069 8371 ft 28 kts 126°
2026-04-25 23:16 4.69355 -74.12908 8371 ft 30 kts 126°
2026-04-25 23:17 4.69242 -74.12752 8371 ft 17 kts 126°
2026-04-25 23:17 4.69179 -74.12667 8371 ft 15 kts 127°
2026-04-25 23:17 4.69158 -74.12579 8371 ft 14 kts 76°
2026-04-25 23:17 4.69241 -74.12525 8371 ft 16 kts 15°
2026-04-25 23:18 4.69303 -74.12521 8371 ft 8 kts 337°
2026-04-25 23:18 4.69330 -74.12543 8371 ft 0 kts 307°
2026-04-25 23:19 4.69330 -74.12544 8371 ft 0 kts 307°
2026-04-25 23:19 4.69446 -74.12696 8371 ft 56 kts 308°
2026-04-25 23:19 4.69800 -74.13163 8371 ft 111 kts 309°
2026-04-25 23:20 4.70358 -74.13917 8372 ft 159 kts 307°
2026-04-25 23:20 4.71085 -74.14886 8590 ft 182 kts 309°
2026-04-25 23:20 4.71905 -74.15911 9110 ft 193 kts 310°
2026-04-25 23:20 4.72792 -74.16943 9725 ft 198 kts 310°
2026-04-25 23:21 4.73692 -74.18001 10350 ft 201 kts 311°
2026-04-25 23:21 4.74651 -74.19052 10893 ft 207 kts 313°
2026-04-25 23:21 4.75841 -74.19883 11317 ft 217 kts 330°
2026-04-25 23:21 4.77321 -74.20479 11618 ft 238 kts 345°
2026-04-25 23:22 4.79016 -74.20638 12005 ft 254 kts
2026-04-25 23:22 4.80736 -74.20107 12275 ft 276 kts 27°
2026-04-25 23:22 4.82316 -74.18901 12670 ft 294 kts 42°
2026-04-25 23:23 4.85218 -74.15743 13701 ft 325 kts 50°
2026-04-25 23:23 4.86674 -74.13921 14200 ft 340 kts 51°
2026-04-25 23:23 4.88130 -74.12043 14726 ft 339 kts 52°
2026-04-25 23:23 4.89116 -74.10844 15045 ft 336 kts 47°
2026-04-25 23:24 4.91375 -74.08683 15572 ft 335 kts 40°
2026-04-25 23:24 4.93177 -74.07202 15947 ft 334 kts 38°
2026-04-25 23:24 4.94387 -74.06253 16181 ft 333 kts 37°
2026-04-25 23:24 4.96201 -74.04799 16538 ft 333 kts 39°
2026-04-25 23:25 4.98553 -74.02825 16990 ft 333 kts 40°
2026-04-25 23:25 4.99714 -74.01777 17216 ft 333 kts 43°
2026-04-25 23:25 5.01357 -74.00172 17543 ft 333 kts 42°
2026-04-25 23:25 5.03314 -73.98921 17746 ft 335 kts 22°
2026-04-25 23:26 5.05549 -73.98228 18027 ft 336 kts 17°
2026-04-25 23:26 5.07767 -73.97487 18332 ft 336 kts 19°
2026-04-25 23:26 5.09965 -73.96676 18632 ft 337 kts 20°
2026-04-25 23:26 5.12190 -73.95915 18923 ft 337 kts 17°
2026-04-25 23:27 5.14444 -73.95225 19212 ft 338 kts 16°
2026-04-25 23:27 5.16703 -73.94583 19487 ft 338 kts 14°
2026-04-25 23:27 5.18995 -73.94026 19774 ft 339 kts 13°
2026-04-25 23:27 5.21298 -73.93514 20058 ft 339 kts 12°
2026-04-25 23:28 5.23623 -73.93018 20338 ft 345 kts 11°
2026-04-25 23:28 5.25966 -73.92525 20644 ft 352 kts 11°
2026-04-25 23:28 5.28382 -73.92019 20985 ft 356 kts 11°
2026-04-25 23:28 5.30822 -73.91501 21332 ft 360 kts 11°
2026-04-25 23:29 5.33282 -73.90962 21666 ft 363 kts 11°
2026-04-25 23:29 5.35767 -73.90411 22012 ft 366 kts 11°
2026-04-25 23:29 5.38262 -73.89855 22360 ft 368 kts 11°
2026-04-25 23:29 5.40744 -73.89302 22707 ft 370 kts 11°
2026-04-25 23:30 5.43262 -73.88743 23062 ft 371 kts 11°
2026-04-25 23:30 5.45802 -73.88179 23421 ft 372 kts 11°
2026-04-25 23:30 5.48327 -73.87613 23782 ft 373 kts 12°
2026-04-25 23:30 5.50860 -73.86987 24138 ft 373 kts 13°
2026-04-25 23:31 5.53339 -73.86190 24471 ft 375 kts 20°
2026-04-25 23:31 5.55716 -73.85103 24794 ft 376 kts 27°
2026-04-25 23:31 5.57927 -73.83758 25116 ft 377 kts 32°
2026-04-25 23:31 5.60096 -73.82271 25446 ft 377 kts 33°
2026-04-25 23:32 5.62281 -73.80784 25768 ft 377 kts 32°
2026-04-25 23:32 5.64491 -73.79354 26090 ft 377 kts 31°
2026-04-25 23:32 5.66711 -73.77960 26405 ft 377 kts 31°
2026-04-25 23:32 5.68942 -73.76579 26714 ft 377 kts 30°
2026-04-25 23:33 5.71154 -73.75218 27013 ft 376 kts 30°
2026-04-25 23:33 5.73395 -73.73844 27309 ft 376 kts 30°
2026-04-25 23:33 5.75649 -73.72506 27593 ft 376 kts 28°
2026-04-25 23:33 5.77951 -73.71234 27870 ft 376 kts 27°
2026-04-25 23:34 5.80257 -73.70007 28104 ft 377 kts 27°
2026-04-25 23:34 5.82626 -73.68766 27975 ft 389 kts 26°
2026-04-25 23:34 5.85079 -73.67504 27776 ft 402 kts 25°
2026-04-25 23:34 5.87588 -73.66286 27566 ft 404 kts 24°
2026-04-25 23:35 5.90133 -73.65101 27354 ft 402 kts 24°
2026-04-25 23:35 5.92676 -73.63941 27252 ft 396 kts 23°
2026-04-25 23:35 5.95146 -73.62782 27283 ft 388 kts 26°
2026-04-25 23:35 5.97520 -73.61518 27306 ft 383 kts 28°
2026-04-25 23:36 5.99803 -73.60219 27314 ft 380 kts 29°
2026-04-25 23:36 6.02073 -73.58885 27316 ft 377 kts 30°
2026-04-25 23:36 6.04333 -73.57536 27316 ft 375 kts 30°
2026-04-25 23:36 6.06565 -73.56194 27317 ft 372 kts 30°
2026-04-25 23:37 6.08784 -73.54856 27317 ft 370 kts 30°
2026-04-25 23:37 6.10987 -73.53525 27317 ft 368 kts 30°
2026-04-25 23:37 6.13170 -73.52205 27317 ft 365 kts 30°
2026-04-25 23:37 6.15317 -73.50907 27317 ft 363 kts 30°
2026-04-25 23:38 6.17469 -73.49607 27317 ft 360 kts 30°
2026-04-25 23:38 6.19623 -73.48304 27317 ft 358 kts 30°
2026-04-25 23:38 6.21756 -73.47016 27314 ft 356 kts 30°
2026-04-25 23:38 6.23878 -73.45733 27307 ft 355 kts 30°
2026-04-25 23:39 6.25988 -73.44459 27301 ft 352 kts 30°
2026-04-25 23:39 6.28080 -73.43195 27296 ft 350 kts 30°
2026-04-25 23:39 6.30166 -73.41943 27288 ft 348 kts 30°
2026-04-25 23:39 6.32251 -73.40702 27278 ft 346 kts 30°
2026-04-25 23:40 6.34295 -73.39490 27238 ft 345 kts 30°
2026-04-25 23:40 6.36363 -73.38267 27196 ft 344 kts 30°
2026-04-25 23:40 6.38430 -73.37047 27180 ft 343 kts 30°
2026-04-25 23:40 6.40481 -73.35836 27173 ft 341 kts 30°
2026-04-25 23:41 6.42529 -73.34627 27206 ft 338 kts 30°
2026-04-25 23:41 6.44549 -73.33435 27238 ft 335 kts 30°
2026-04-25 23:41 6.46559 -73.32250 27250 ft 333 kts 30°
2026-04-25 23:41 6.48526 -73.31090 27252 ft 331 kts 30°
2026-04-25 23:42 6.50518 -73.29917 27252 ft 329 kts 30°
2026-04-25 23:42 6.52494 -73.28752 27193 ft 330 kts 30°
2026-04-25 23:42 6.54473 -73.27587 27151 ft 329 kts 30°
2026-04-25 23:42 6.56453 -73.26421 27132 ft 328 kts 30°
2026-04-25 23:43 6.58428 -73.25259 27122 ft 327 kts 30°
2026-04-25 23:43 6.60383 -73.24108 27120 ft 325 kts 30°
2026-04-25 23:43 6.62318 -73.22972 27113 ft 324 kts 30°
2026-04-25 23:43 6.64265 -73.21837 27110 ft 322 kts 30°
2026-04-25 23:44 6.66201 -73.20712 27110 ft 321 kts 30°
2026-04-25 23:44 6.68139 -73.19589 27109 ft 319 kts 30°
2026-04-25 23:44 6.70036 -73.18492 27081 ft 319 kts 30°
2026-04-25 23:44 6.71962 -73.17377 27073 ft 318 kts 30°
2026-04-25 23:45 6.73873 -73.16272 27080 ft 316 kts 30°
2026-04-25 23:45 6.75785 -73.15167 27083 ft 315 kts 30°
2026-04-25 23:45 6.77688 -73.14067 27089 ft 314 kts 29°
2026-04-25 23:45 6.79574 -73.12973 27111 ft 312 kts 30°
2026-04-25 23:46 6.81425 -73.11897 27145 ft 309 kts 30°
2026-04-25 23:46 6.83284 -73.10816 27192 ft 306 kts 30°
2026-04-25 23:46 6.85125 -73.09746 27210 ft 305 kts 30°
2026-04-25 23:46 6.86952 -73.08684 27184 ft 305 kts 30°
2026-04-25 23:47 6.88793 -73.07613 27145 ft 304 kts 30°
2026-04-25 23:47 6.90623 -73.06550 27128 ft 303 kts 30°
2026-04-25 23:47 6.92451 -73.05488 27121 ft 302 kts 30°
2026-04-25 23:47 6.94269 -73.04433 27117 ft 300 kts 30°
2026-04-25 23:48 6.96053 -73.03397 27122 ft 298 kts 29°
2026-04-25 23:48 6.97852 -73.02353 27127 ft 297 kts 29°
2026-04-25 23:48 6.99635 -73.01318 27130 ft 295 kts 29°
2026-04-25 23:48 7.01408 -73.00290 27128 ft 294 kts 29°
2026-04-25 23:49 7.03186 -72.99259 27110 ft 293 kts 29°
2026-04-25 23:49 7.04953 -72.98235 27078 ft 292 kts 29°
2026-04-25 23:49 7.06695 -72.97226 27058 ft 291 kts 29°
2026-04-25 23:49 7.08442 -72.96213 27052 ft 290 kts 29°
2026-04-25 23:50 7.10189 -72.95201 27050 ft 288 kts 29°
2026-04-25 23:50 7.11921 -72.94198 27050 ft 286 kts 29°
2026-04-25 23:50 7.13640 -72.93204 27059 ft 284 kts 29°
2026-04-25 23:50 7.15344 -72.92217 27068 ft 282 kts 29°
2026-04-25 23:51 7.17043 -72.91234 27074 ft 280 kts 29°
2026-04-25 23:51 7.18733 -72.90257 27077 ft 278 kts 29°
2026-04-25 23:51 7.20406 -72.89289 27079 ft 277 kts 29°
2026-04-25 23:51 7.22049 -72.88339 27084 ft 275 kts 29°
2026-04-25 23:52 7.23722 -72.87371 27088 ft 273 kts 29°
2026-04-25 23:52 7.25363 -72.86423 27089 ft 271 kts 29°
2026-04-25 23:52 7.26968 -72.85497 27090 ft 268 kts 30°
2026-04-25 23:52 7.28588 -72.84574 27089 ft 266 kts 29°
2026-04-25 23:53 7.30198 -72.83664 27087 ft 264 kts 29°
2026-04-25 23:53 7.31795 -72.82764 27085 ft 261 kts 29°
2026-04-25 23:53 7.33376 -72.81882 27084 ft 259 kts 28°
2026-04-25 23:53 7.34988 -72.81068 27011 ft 256 kts 26°
2026-04-25 23:54 7.36608 -72.80298 26410 ft 262 kts 25°
2026-04-25 23:54 7.38301 -72.79539 25746 ft 270 kts 23°
2026-04-25 23:54 7.40063 -72.78906 25153 ft 275 kts 17°
2026-04-25 23:54 7.41923 -72.78397 24605 ft 278 kts 15°
2026-04-25 23:55 7.43809 -72.77939 24092 ft 279 kts 14°
2026-04-25 23:55 7.45664 -72.77361 23588 ft 279 kts 22°
2026-04-25 23:55 7.47444 -72.76573 23115 ft 279 kts 26°
2026-04-25 23:55 7.49177 -72.75710 22661 ft 277 kts 27°
2026-04-25 23:56 7.50891 -72.74823 22210 ft 276 kts 28°
2026-04-25 23:56 7.52593 -72.73930 21765 ft 274 kts 28°
2026-04-25 23:56 7.54284 -72.73068 21327 ft 272 kts 27°
2026-04-25 23:56 7.55993 -72.72221 20651 ft 279 kts 26°
2026-04-25 23:57 7.57788 -72.71337 19744 ft 294 kts 26°
2026-04-25 23:57 7.59661 -72.70414 18889 ft 305 kts 26°
2026-04-25 23:57 7.61586 -72.69464 18079 ft 312 kts 26°
2026-04-25 23:57 7.63531 -72.68502 17310 ft 317 kts 26°
2026-04-25 23:58 7.65526 -72.67514 16556 ft 321 kts 26°
2026-04-25 23:58 7.67524 -72.66502 15825 ft 323 kts 28°
2026-04-25 23:58 7.69469 -72.65361 15108 ft 323 kts 32°
2026-04-25 23:58 7.71376 -72.64144 14330 ft 326 kts 33°
2026-04-25 23:59 7.73286 -72.62884 13428 ft 331 kts 33°
2026-04-25 23:59 7.75222 -72.61587 12521 ft 336 kts 34°
2026-04-25 23:59 7.77135 -72.60298 11550 ft 326 kts 34°
2026-04-25 23:59 7.78997 -72.59046 10568 ft 315 kts 34°
2026-04-26 00:00 7.80775 -72.57853 9611 ft 306 kts 34°
2026-04-26 00:00 7.82523 -72.56679 8656 ft 299 kts 34°
2026-04-26 00:00 7.84277 -72.55592 7714 ft 293 kts 30°
2026-04-26 00:00 7.86073 -72.54652 6786 ft 287 kts 27°
2026-04-26 00:01 7.87856 -72.53785 5879 ft 282 kts 25°
2026-04-26 00:01 7.89571 -72.52976 5812 ft 254 kts 25°
2026-04-26 00:01 7.91099 -72.52265 5919 ft 229 kts 25°
2026-04-26 00:01 7.92519 -72.51702 5938 ft 210 kts 15°
2026-04-26 00:02 7.93915 -72.51474 5771 ft 201 kts
2026-04-26 00:02 7.95277 -72.51708 5508 ft 199 kts 349°
2026-04-26 00:02 7.96628 -72.51941 5287 ft 197 kts 351°
2026-04-26 00:02 7.98003 -72.52138 5029 ft 201 kts 353°
2026-04-26 00:03 7.99420 -72.52278 4767 ft 207 kts 356°
2026-04-26 00:03 8.00891 -72.52329 4555 ft 216 kts
2026-04-26 00:03 8.02412 -72.52233 4386 ft 222 kts
2026-04-26 00:03 8.03946 -72.52077 4271 ft 226 kts
2026-04-26 00:04 8.05493 -72.51828 4317 ft 223 kts 11°
2026-04-26 00:04 8.06973 -72.51482 4318 ft 214 kts 16°
2026-04-26 00:04 8.08334 -72.50980 4344 ft 200 kts 22°
2026-04-26 00:04 8.09568 -72.50460 4297 ft 189 kts 24°
2026-04-26 00:05 8.10790 -72.50039 4293 ft 183 kts 17°
2026-04-26 00:05 8.12041 -72.49738 4308 ft 189 kts 12°
2026-04-26 00:05 8.13367 -72.49506 4311 ft 196 kts 10°
2026-04-26 00:05 8.14642 -72.48996 4272 ft 201 kts 33°
2026-04-26 00:06 8.15432 -72.47908 4320 ft 186 kts 65°
2026-04-26 00:06 8.15467 -72.46674 4290 ft 176 kts 101°
2026-04-26 00:06 8.14853 -72.45644 4293 ft 169 kts 131°
2026-04-26 00:06 8.13879 -72.45033 4323 ft 168 kts 153°
2026-04-26 00:07 8.12717 -72.44815 4324 ft 171 kts 174°
2026-04-26 00:07 8.11522 -72.44938 4276 ft 175 kts 187°
2026-04-26 00:07 8.10344 -72.45323 4052 ft 183 kts 203°
2026-04-26 00:07 8.09253 -72.45951 3883 ft 177 kts 209°
2026-04-26 00:08 8.08179 -72.46539 3637 ft 173 kts 206°
2026-04-26 00:08 8.07082 -72.47006 3380 ft 171 kts 200°
2026-04-26 00:08 8.05965 -72.47380 3151 ft 164 kts 196°
2026-04-26 00:08 8.04899 -72.47681 3002 ft 155 kts 194°
2026-04-26 00:09 8.03916 -72.47951 3053 ft 141 kts 194°
2026-04-26 00:09 8.03011 -72.48231 3068 ft 133 kts 196°
2026-04-26 00:09 8.02092 -72.48513 3019 ft 146 kts 195°
2026-04-26 00:09 8.01064 -72.48744 2973 ft 153 kts 188°
2026-04-26 00:10 8.00072 -72.48938 3039 ft 139 kts 191°
2026-04-26 00:10 7.99132 -72.49155 2905 ft 138 kts 191°
2026-04-26 00:10 7.98227 -72.49482 2599 ft 138 kts 199°
2026-04-26 00:10 7.97303 -72.49730 2313 ft 135 kts 193°
2026-04-26 00:11 7.96439 -72.50009 1972 ft 125 kts 194°
2026-04-26 00:11 7.95635 -72.50258 1690 ft 119 kts 197°
2026-04-26 00:11 7.94851 -72.50521 1435 ft 119 kts 198°
2026-04-26 00:11 7.94088 -72.50747 1261 ft 108 kts 195°
2026-04-26 00:12 7.93389 -72.50955 1116 ft 102 kts 195°
2026-04-26 00:12 7.92791 -72.51138 1101 ft 70 kts 198°
2026-04-26 00:12 7.92420 -72.51256 1101 ft 48 kts 197°
2026-04-26 00:12 7.92146 -72.51342 1101 ft 35 kts 197°
2026-04-26 00:13 7.91962 -72.51404 1100 ft 19 kts 199°
2026-04-26 00:13 7.91865 -72.51427 1100 ft 10 kts 181°
2026-04-26 00:13 7.91815 -72.51431 1100 ft 5 kts 211°
2026-04-26 00:13 7.91811 -72.51460 1100 ft 3 kts 308°
2026-04-26 00:14 7.91847 -72.51458 1100 ft 9 kts 29°
2026-04-26 00:14 7.91894 -72.51431 1100 ft 14 kts 29°
2026-04-26 00:14 7.92044 -72.51380 1100 ft 19 kts 17°
2026-04-26 00:14 7.92174 -72.51339 1100 ft 19 kts 17°
2026-04-26 00:15 7.92260 -72.51312 1100 ft 20 kts 17°
2026-04-26 00:15 7.92401 -72.51268 1100 ft 22 kts 17°
2026-04-26 00:15 7.92547 -72.51221 1100 ft 22 kts 18°
2026-04-26 00:15 7.92676 -72.51179 1100 ft 12 kts 18°
2026-04-26 00:16 7.92741 -72.51107 1100 ft 16 kts 61°
2026-04-26 00:16 7.92780 -72.51014 1100 ft 13 kts 76°
2026-04-26 00:16 7.92815 -72.50932 1100 ft 14 kts 53°
2026-04-26 00:16 7.92871 -72.50868 1100 ft 12 kts 101°
2026-04-26 00:17 7.92848 -72.50827 1100 ft 6 kts 157°
2026-04-26 00:17 7.92833 -72.50825 1100 ft 2 kts 178°
2026-04-26 00:17 7.92813 -72.50828 1100 ft 3 kts 194°
2026-04-26 00:17 7.92803 -72.50832 1100 ft 0 kts 203°